Lapse_Rate
9.4 9.3 7.4 6.4 7.3 6.4 6.5 5.3 5.1 6.2 7.5 7.1 4.6 3.7 4.0 4.2 4.5 6.4 9.4 9.4 9.6 9.6 9.7 9.6 9.5 9.7 9.7 9.7 9.7 9.6 9.5 9.5 9.1 9.7 10.0 10.1 9.7 9.8 9.8 9.8 9.7 9.8 9.8
9.4 9.0 6.8 6.2 4.4 3.6 3.4 3.6 3.8 3.8 3.5 2.9 3.6 4.7 5.4 5.9 8.2 9.2 9.5 9.7 9.5 9.4 9.5 9.5 9.5 9.9 9.5 9.6 9.9 9.5 9.6 9.7 9.5 9.1 9.8 9.8 9.7 9.8 9.2 9.7 9.8 9.7 9.8
8.6 6.9 4.6 3.1 2.9 2.4 2.6 1.9 1.6 1.4 3.4 4.3 4.5 4.5 5.0 6.6 9.5 9.8 9.7 9.6 9.6 9.6 9.6 9.6 9.6 9.6 9.5 9.7 9.7 9.6 9.9 9.8 9.8 9.5 9.5 9.9 9.8 9.9 9.8 9.8 9.8 10.0 9.7
5.4 5.2 4.0 3.1 2.8 2.0 2.1 2.6 2.4 2.2 2.8 3.6 3.9 4.4 5.3 9.4 9.9 9.8 9.8 9.7 9.7 9.7 9.7 9.7 9.7 9.6 9.5 9.6 9.7 9.7 9.9 9.6 9.6 9.5 9.5 9.3 9.4 9.8 9.7 9.1 9.1 9.7 9.9
6.9 5.6 3.3 2.3 2.0 3.4 3.1 3.1 2.7 2.6 2.3 4.5 4.7 4.9 8.3 9.8 9.9 9.7 9.8 9.6 9.6 9.5 9.6 9.8 9.8 9.1 7.3 7.7 9.5 9.5 9.6 9.5 9.8 9.6 9.4 8.9 9.2 9.1 9.0 9.2 9.4 9.3 10.1
5.6 4.0 3.6 3.5 3.1 1.8 1.8 2.2 2.9 4.6 5.1 5.0 6.0 9.5 9.5 9.8 3.8 4.7 4.6 8.0 8.9 9.5 9.4 9.6 9.8 8.5 8.4 5.1 5.4 5.4 7.2 8.7 9.2 9.0 9.2 9.0 8.9 9.0 9.5 9.1 9.1 9.0 8.8
5.8 4.6 4.0 3.2 3.0 3.1 3.7 4.1 5.2 6.4 6.4 8.1 9.5 9.5 9.5 9.6 4.9 4.3 3.5 7.4 8.4 9.5 9.5 9.7 9.7 10.0 8.4 10.0 8.0 4.6 5.2 5.4 5.3 8.5 8.7 9.1 8.8 9.2 9.3 9.1 9.0 9.2 9.1
4.4 4.2 4.3 4.7 5.4 5.9 7.3 8.6 8.8 8.4 9.4 9.4 9.5 9.6 9.6 9.6 5.1 4.6 3.7 7.7 8.7 9.6 9.7 9.7 9.9 9.9 9.9 9.0 9.6 9.6 9.5 9.2 8.0 8.0 8.7 9.4 9.8 9.8 9.5 9.3 9.2 9.3 9.5
6.3 7.8 8.1 8.0 7.2 6.6 7.7 8.5 8.3 9.4 9.4 9.4 9.6 9.5 9.5 9.5 4.8 5.2 4.5 8.5 9.0 9.2 9.7 9.7 9.8 9.8 8.8 6.9 8.0 8.8 9.0 8.4 9.2 8.6 8.4 8.2 7.2 6.4 6.0 8.0 8.4 8.7 8.5
9.1 9.1 8.1 7.1 9.0 9.2 8.3 9.3 9.5 9.5 9.4 9.5 9.4 9.5 8.2 9.0 5.2 5.1 5.7 7.0 6.9 7.7 8.5 9.5 8.4 8.5 7.0 6.7 8.0 8.0 7.0 7.5 8.1 8.2 9.4 8.2 7.0 7.8 5.9 7.2 8.5 8.6 8.9
9.4 9.4 9.5 9.4 8.6 9.3 9.5 9.5 9.5 9.4 9.3 8.9 6.7 6.3 7.0 8.2 8.2 6.0 4.8 6.4 7.2 7.4 7.3 8.3 9.3 8.1 7.7 7.8 7.5 8.2 7.4 7.8 7.9 7.1 7.3 8.9 8.0 8.6 9.5 8.7 8.7 8.9 8.7
9.5 9.3 9.4 9.3 9.3 9.5 9.4 9.4 9.4 9.4 9.1 8.5 4.3 5.8 8.5 8.7 8.2 7.5 6.3 5.3 5.1 6.9 7.7 8.5 9.3 8.0 7.0 6.6 6.9 7.4 7.0 5.9 6.7 6.7 7.4 7.3 8.3 8.8 9.2 9.4 8.4 8.9 9.3
9.4 9.3 9.3 9.0 9.1 9.5 9.3 9.3 9.1 9.3 8.8 8.7 7.8 8.3 8.8 8.5 9.6 6.7 6.6 4.9 5.2 5.8 6.9 7.3 6.8 6.6 6.3 6.6 5.9 6.0 6.3 6.4 6.8 7.1 7.4 8.0 8.2 8.4 8.9 8.3 8.4 8.8 9.1
9.2 9.2 9.1 9.1 9.0 8.9 9.2 8.9 9.0 8.4 8.1 7.9 8.6 8.6 8.7 8.9 9.4 7.8 5.8 6.5 6.5 6.9 7.6 7.4 6.4 6.0 6.7 6.4 6.4 7.5 6.7 6.4 7.1 7.6 8.1 8.6 8.6 7.9 8.2 8.6 8.0 7.5 8.0
9.1 8.8 9.0 7.5 8.0 7.4 7.7 6.5 7.0 4.1 3.6 5.4 6.7 6.5 7.0 6.8 7.5 4.9 5.4 5.8 6.1 6.3 6.6 7.7 8.8 8.4 8.6 8.7 7.9 8.3 7.7 6.9 7.1 8.0 8.4 8.7 8.8 8.9 8.6 8.4 7.4 7.9 7.7
8.7 8.6 7.0 7.0 6.6 7.8 8.8 6.3 3.0 3.7 3.0 2.8 3.0 4.0 5.5 4.9 4.3 4.8 5.3 5.2 5.6 6.6 7.4 9.1 8.6 8.3 8.0 8.3 8.4 7.2 6.9 7.0 7.2 7.9 8.1 8.1 8.4 8.4 8.7 8.2 7.9 7.9 8.1
7.8 4.8 4.6 6.0 7.1 7.9 7.9 8.8 8.8 5.4 5.5 5.6 5.3 5.0 4.3 4.2 4.5 5.1 5.6 5.5 6.6 8.8 9.0 9.0 8.7 8.5 8.4 8.7 8.7 8.6 7.7 6.8 6.2 7.4 7.6 7.6 7.9 8.0 8.2 7.9 7.8 7.8 7.9
3.3 2.8 6.5 6.8 7.5 7.9 9.0 8.4 8.8 8.8 8.7 9.0 7.0 7.3 7.3 5.7 4.7 5.5 6.3 6.5 9.2 9.3 9.3 9.0 8.9 8.8 8.8 8.7 8.7 8.6 7.7 6.8 6.6 5.9 7.2 7.4 7.3 7.3 7.9 7.6 8.0 7.9 8.0
4.4 4.1 4.7 5.1 5.1 5.3 6.5 7.4 8.2 8.9 8.9 9.1 9.3 9.0 9.0 7.8 5.7 7.5 9.1 9.1 8.9 9.1 9.2 9.2 9.2 9.1 8.9 8.8 8.9 8.6 8.2 7.6 6.9 6.5 6.5 7.2 7.5 7.8 7.6 7.5 7.7 8.1 8.2
2.5 2.5 3.5 5.8 6.4 6.9 7.5 8.0 8.8 9.0 9.0 9.0 9.0 9.1 9.2 7.9 6.4 8.9 9.1 8.9 8.9 9.0 9.0 9.1 9.1 9.1 9.0 9.0 8.8 8.9 8.6 8.0 7.3 7.0 6.3 6.1 6.4 7.5 7.5 7.5 7.5 7.9 8.3
6.5 4.8 3.0 6.1 6.4 6.5 6.9 8.2 9.0 9.0 8.9 9.0 9.0 9.0 5.3 7.0 7.7 9.0 9.0 9.0 8.9 9.0 9.0 9.1 9.2 8.9 9.2 9.2 9.1 9.0 8.8 8.7 8.1 7.5 7.1 5.5 4.6 5.3 7.1 7.6 7.5 7.9 8.3
4.5 5.0 5.3 5.6 5.9 7.8 8.3 7.1 9.0 9.0 9.0 9.0 9.1 9.3 8.7 8.8 8.9 9.0 9.1 8.9 8.8 9.3 9.3 9.3 9.3 9.4 9.4 9.2 9.2 9.1 8.9 8.9 8.8 7.4 6.9 5.1 4.8 4.4 5.2 6.7 7.5 7.8 8.1
4.5 4.8 5.9 7.6 7.7 7.6 8.3 9.1 9.0 9.0 9.1 9.1 9.2 9.1 9.1 8.9 8.7 9.1 9.0 9.0 9.3 9.2 9.2 9.1 9.3 9.3 9.2 9.2 9.0 9.2 9.1 9.0 9.0 8.5 6.1 4.7 4.2 4.6 4.2 4.6 6.7 7.7 7.7
5.2 6.0 7.6 8.6 9.0 6.9 8.8 8.9 9.0 8.9 9.1 9.1 9.0 8.8 8.9 8.8 8.9 9.0 9.1 9.2 9.4 9.3 9.1 9.1 9.1 9.0 9.1 9.1 8.9 9.0 8.8 8.2 7.7 7.3 5.8 4.2 3.7 4.0 4.9 4.6 4.5 7.5 7.5
8.2 8.9 9.0 9.0 9.0 9.0 9.0 9.1 9.0 8.9 8.9 8.9 8.9 8.9 9.1 9.2 9.3 9.4 9.3 9.3 9.4 9.5 9.3 8.5 7.2 8.6 9.0 8.0 7.1 6.6 7.0 7.1 6.3 4.6 4.2 4.3 3.8 3.7 3.9 4.1 4.4 5.6 7.5
9.1 9.1 9.1 9.1 9.0 9.0 8.9 8.9 8.8 8.9 8.9 8.9 9.0 9.2 9.1 9.3 9.4 9.4 9.4 9.4 9.5 9.3 7.0 7.7 8.2 7.2 6.8 6.2 7.5 7.8 5.5 4.6 4.3 3.6 3.4 4.1 4.0 3.7 4.4 4.8 5.0 5.2 7.3
Wind_Speed
16 15 11 9 12 8 8 3 2 4 7 9 10 8 7 7 7 10 9 7 9 10 10 10 11 11 9 9 9 9 10 10 11 11 11 11 12 12 15 17 17 18 19
16 13 10 8 8 9 9 8 8 9 9 9 7 8 7 6 6 5 7 9 10 11 11 11 12 10 12 12 10 12 11 12 11 15 13 11 12 11 9 13 14 19 20
12 13 12 12 12 12 13 14 14 14 8 4 5 4 4 8 10 10 9 10 11 11 11 12 13 13 13 11 12 11 11 11 11 11 12 10 10 10 11 10 12 15 20
13 12 11 11 10 10 10 14 13 11 12 9 6 6 7 10 9 10 9 9 10 11 11 12 13 14 15 14 13 13 12 12 11 11 11 10 10 12 11 10 10 10 9
12 10 10 12 12 12 12 11 11 8 8 10 10 8 12 8 7 9 7 8 10 11 12 13 13 14 11 11 11 14 14 13 11 11 12 9 11 11 11 9 9 9 10
13 12 11 10 12 10 10 10 9 9 8 7 11 9 5 7 10 6 2 8 10 12 13 14 15 15 15 17 17 15 14 14 15 13 12 13 15 12 9 8 8 8 10
11 11 11 12 12 11 11 9 10 9 8 9 7 6 5 7 9 7 4 7 11 12 14 14 14 13 13 15 13 18 17 19 15 15 15 14 15 13 12 11 11 11 10
13 13 13 13 14 13 13 11 10 8 7 5 4 5 5 5 9 7 6 9 11 14 15 16 16 16 15 13 15 16 17 15 14 12 14 15 14 12 11 10 10 10 9
14 15 14 14 13 12 9 9 5 6 4 4 4 4 5 6 7 1 4 10 12 14 15 17 17 17 19 15 14 15 15 14 19 15 17 20 11 6 5 6 8 8 9
14 14 14 14 12 9 7 7 5 3 3 2 2 2 4 6 10 8 8 7 10 9 13 14 13 15 15 14 13 14 14 14 13 14 12 12 16 16 15 12 9 9 9
15 14 12 10 8 8 6 5 4 3 1 0 3 4 6 4 4 8 7 7 8 9 10 11 10 13 14 15 13 12 13 14 13 10 10 10 10 11 8 14 15 9 9
14 13 11 8 5 5 5 4 3 3 2 2 2 3 2 3 3 8 11 11 13 11 12 11 13 17 22 24 18 20 17 13 9 9 10 9 9 8 8 8 16 16 15
12 10 9 7 6 4 3 2 1 1 0 0 1 3 3 4 4 10 11 13 15 11 11 16 24 24 24 19 21 22 15 9 7 8 10 10 9 9 9 9 12 16 16
10 9 7 6 5 4 3 2 1 2 1 1 2 3 3 5 5 7 8 9 13 12 12 13 17 18 19 16 12 10 7 8 7 9 8 8 7 7 8 8 8 7 7
8 7 6 5 4 4 5 4 2 6 4 3 3 3 4 4 6 10 11 9 10 12 13 11 9 9 9 9 9 8 6 5 7 8 8 7 7 7 7 7 7 7 8
8 5 4 4 3 2 2 5 7 9 7 6 5 3 3 4 11 14 14 17 20 17 10 8 8 8 8 9 10 9 8 8 7 7 7 7 7 7 7 7 7 8 8
8 7 4 2 2 2 0 1 2 5 7 9 8 4 2 6 11 14 14 17 19 11 7 8 7 8 9 9 9 9 10 9 11 6 7 8 8 8 8 7 8 8 8
8 6 4 3 2 1 2 3 3 3 4 4 9 5 1 6 12 15 13 16 7 8 8 8 9 8 9 10 9 9 9 9 10 10 8 6 6 7 8 8 8 8 8
6 5 4 3 3 2 2 3 4 3 5 5 6 4 3 9 16 15 9 7 8 8 8 9 9 9 9 9 9 9 10 9 10 10 9 9 5 7 8 8 7 9 9
6 5 4 2 1 2 3 3 4 4 5 6 6 7 7 8 8 9 7 7 7 8 8 9 9 9 9 10 9 9 9 10 9 9 9 9 9 6 8 7 7 7 8
3 3 2 2 2 3 3 4 4 5 5 6 6 5 3 5 9 8 8 7 7 8 8 8 9 9 9 9 9 9 10 9 9 10 8 9 10 9 9 6 6 7 7
3 2 2 3 3 3 4 5 5 6 6 7 7 7 7 6 7 7 9 7 7 8 8 8 9 9 9 9 9 10 10 10 10 9 10 9 10 10 9 8 7 7 7
3 3 3 3 3 4 5 5 5 6 6 7 8 8 8 7 7 8 9 8 8 7 13 13 9 9 14 15 16 13 10 10 10 9 9 10 10 10 10 9 8 7 7
3 3 4 4 4 4 5 5 6 7 7 7 8 8 8 8 8 9 8 8 7 11 14 14 14 14 15 15 16 17 18 18 18 16 15 10 10 12 10 11 10 7 7
3 4 4 5 6 6 6 7 7 7 7 7 7 8 8 8 9 9 9 8 9 9 13 14 16 17 18 20 22 23 22 20 16 18 17 14 13 16 13 10 11 11 7
4 5 5 5 6 6 6 7 7 7 7 7 8 8 8 9 9 9 9 9 9 9 16 16 17 22 23 22 22 21 20 20 21 22 19 14 11 10 10 12 14 12 7
Wind_Direction
190 193 183 196 196 182 189 181 189 144 123 121 110 123 171 188 196 211 228 253 257 252 260 264 257 264 271 273 272 272 277 279 280 282 284 289 288 289 283 274 269 278 278
191 176 157 167 120 117 104 89 76 82 95 111 127 177 199 201 214 242 239 259 268 260 262 267 269 269 265 263 266 268 269 275 275 280 281 283 279 284 279 278 271 278 281
154 140 139 133 134 136 140 138 129 122 117 138 143 127 182 212 223 231 247 263 267 273 274 275 276 276 273 270 270 273 276 279 281 282 283 287 290 292 290 273 262 268 271
122 144 142 138 127 116 112 122 131 127 129 145 152 178 218 230 239 245 268 272 269 272 280 280 280 279 277 277 275 276 275 274 278 284 284 293 299 282 279 276 271 261 278
137 140 124 117 124 137 138 135 129 132 143 163 171 208 223 232 251 267 270 281 286 287 282 278 276 276 276 275 278 279 287 293 292 292 291 278 270 272 269 281 280 285 280
137 130 129 127 130 123 117 121 131 152 163 177 203 203 230 259 111 109 295 286 290 288 286 286 287 282 266 240 237 241 252 265 270 278 285 280 275 274 285 290 283 289 290
127 121 135 136 133 129 132 138 148 167 183 206 213 239 251 252 156 159 169 273 280 283 287 288 288 286 291 288 268 230 231 233 240 263 272 272 279 279 279 286 284 281 285
130 141 141 140 139 145 150 154 152 175 205 224 219 224 240 263 153 186 198 270 279 282 285 287 288 290 289 292 291 288 285 280 239 232 251 264 269 282 280 275 286 289 293
146 147 143 142 140 141 160 159 182 204 194 203 222 237 257 273 154 233 305 294 295 297 298 298 298 299 302 325 307 287 287 285 282 246 243 251 257 263 281 291 278 280 272
139 138 141 149 160 146 167 183 168 176 207 225 259 274 360 296 80 57 9 318 305 302 300 302 305 303 303 303 301 297 274 277 279 277 251 238 240 244 217 239 251 251 260
141 145 136 135 158 163 145 145 158 175 151 153 38 333 305 333 343 50 32 325 311 312 303 299 297 297 299 293 283 282 277 279 280 274 263 263 228 238 233 218 226 231 247
139 144 142 132 130 138 150 147 165 189 197 151 117 296 297 328 6 52 29 5 337 308 298 297 296 305 303 294 287 277 274 259 258 260 259 253 256 245 237 235 220 234 238
140 136 126 124 124 121 139 136 203 223 265 125 284 299 316 325 303 67 8 345 315 316 304 298 293 288 285 287 269 261 260 253 248 254 257 252 249 246 248 238 242 248 243
134 131 129 132 124 118 128 108 107 42 16 321 306 318 325 322 331 357 331 324 322 313 315 307 295 286 276 269 278 269 256 238 241 252 255 261 252 236 232 232 230 225 240
125 123 122 119 117 120 75 34 81 71 39 354 22 338 343 318 0 334 321 321 317 307 310 294 304 326 327 333 330 295 253 227 235 246 260 260 254 252 243 234 219 232 238
130 111 92 120 112 99 151 146 98 106 121 106 85 26 350 5 339 323 318 318 315 307 303 309 328 328 329 326 330 334 323 248 243 254 247 253 262 256 253 229 222 229 238
99 110 103 105 88 54 331 270 257 175 182 174 167 163 196 317 328 321 316 318 303 313 312 324 323 330 330 328 332 333 330 329 327 244 248 246 240 232 248 246 229 225 229
85 38 84 72 45 343 345 335 308 316 303 280 194 213 262 318 330 314 314 310 317 325 325 327 325 329 326 326 327 330 330 328 330 332 302 263 252 232 235 229 227 231 230
75 68 56 61 46 0 319 311 300 303 297 297 296 261 211 6 325 295 297 318 323 317 325 323 326 325 326 324 322 324 326 324 326 327 327 312 256 253 245 225 224 227 229
90 62 25 42 348 310 304 304 297 295 297 296 301 307 328 345 323 311 320 320 318 317 321 319 319 322 321 319 321 321 324 324 326 325 330 324 333 276 256 225 217 222 214
55 85 10 299 320 325 309 296 300 293 296 299 301 328 58 322 297 305 315 316 321 320 316 317 316 316 318 317 319 322 320 318 322 321 328 332 330 321 306 225 218 219 220
36 13 347 335 322 298 328 306 307 303 301 298 306 305 307 281 298 313 309 319 323 310 312 318 314 314 317 317 317 315 316 313 316 323 326 326 322 323 314 295 213 216 211
22 355 332 322 322 324 280 305 307 300 310 308 305 306 310 308 312 308 311 316 310 317 315 313 311 310 313 312 314 312 308 310 315 319 320 317 311 314 317 307 289 210 199
5 342 331 319 319 319 302 320 303 301 298 302 308 308 309 312 309 309 307 312 316 312 313 308 310 310 305 306 307 308 307 308 308 306 309 308 304 301 301 307 308 228 200
337 326 322 317 315 316 309 301 309 306 310 310 310 312 310 311 308 311 313 313 316 309 310 319 307 300 305 310 307 303 297 298 305 309 301 292 290 294 291 286 282 286 192
330 327 323 317 309 310 311 310 307 309 309 310 315 308 311 312 313 313 314 315 308 321 313 300 309 309 310 306 303 310 315 311 303 295 287 284 285 284 283 283 281 284 186